Data No.,UTC Date,UTC Time,Latitude,Longitude,Course(deg),Temp(degC)
4881,2012/3/25,12:34:00,25-19.9200N,119-59.8600E,232,15.469
4882,2012/3/25,12:35:00,25-19.8100N,119-59.7000E,232,15.54
4883,2012/3/25,12:36:00,25-19.7000N,119-59.5400E,232,15.606
4884,2012/3/25,12:37:00,25-19.5800N,119-59.3900E,227,15.66
4885,2012/3/25,12:38:00,25-19.4500N,119-59.2400E,226,15.712
4886,2012/3/25,12:39:00,25-19.3100N,119-59.0800E,225,15.824
4887,2012/3/25,12:40:00,25-19.1900N,119-58.9500E,225,15.913
4888,2012/3/25,12:41:00,25-19.0700N,119-58.8100E,228,15.979
4889,2012/3/25,12:42:00,25-18.9500N,119-58.6600E,227,15.993
4890,2012/3/25,12:43:00,25-18.8300N,119-58.5200E,228,15.906
4891,2012/3/25,12:44:00,25-18.7100N,119-58.3600E,230,15.831
4892,2012/3/25,12:45:00,25-18.6000N,119-58.2100E,229,15.667
4893,2012/3/25,12:46:00,25-18.4800N,119-58.0700E,223,15.513
4894,2012/3/25,12:47:00,25-18.3600N,119-57.9300E,228,15.426
4895,2012/3/25,12:48:00,25-18.2500N,119-57.7700E,230,15.412
4896,2012/3/25,12:49:00,25-18.1300N,119-57.6200E,227,15.428
4897,2012/3/25,12:50:00,25-18.0100N,119-57.4800E,226,15.46
4898,2012/3/25,12:51:00,25-17.8800N,119-57.3400E,225,15.497
4899,2012/3/25,12:52:00,25-17.7500N,119-57.2000E,226,15.595
4900,2012/3/25,12:53:00,25-17.6300N,119-57.0300E,229,15.68
4901,2012/3/25,12:54:00,25-17.5000N,119-56.8700E,228,15.764
4902,2012/3/25,12:55:00,25-17.3600N,119-56.7300E,223,15.573
4903,2012/3/25,12:56:00,25-17.2600N,119-56.6000E,228,15.46
4904,2012/3/25,12:57:00,25-17.1400N,119-56.4500E,228,15.432
4905,2012/3/25,12:58:00,25-17.0100N,119-56.3000E,222,15.358
4906,2012/3/25,12:59:00,25-16.8800N,119-56.1600E,222,15.308
4907,2012/3/25,13:00:00,25-16.7500N,119-56.0100E,228,15.258
4908,2012/3/25,13:01:00,25-16.6200N,119-55.8500E,229,15.226
4909,2012/3/25,13:02:00,25-16.4900N,119-55.7000E,223,15.186
4910,2012/3/25,13:03:00,25-16.3300N,119-55.5400E,220,15.163
4911,2012/3/25,13:04:00,25-16.2200N,119-55.4200E,226,15.132
4912,2012/3/25,13:05:00,25-16.1000N,119-55.2700E,229,15.112
4913,2012/3/25,13:06:00,25-15.9600N,119-55.1000E,225,15.094
4914,2012/3/25,13:07:00,25-15.8400N,119-54.9800E,222,15.015
4915,2012/3/25,13:08:00,25-15.7100N,119-54.8300E,227,14.924
4916,2012/3/25,13:09:00,25-15.5800N,119-54.6800E,224,14.876
4917,2012/3/25,13:10:00,25-15.4400N,119-54.5300E,223,14.783
4918,2012/3/25,13:11:00,25-15.3100N,119-54.3800E,225,14.777
4919,2012/3/25,13:12:00,25-15.1700N,119-54.2400E,221,14.714
4920,2012/3/25,13:13:00,25-15.0300N,119-54.0900E,224,14.704
4921,2012/3/25,13:14:00,25-14.8900N,119-53.9400E,223,14.709
4922,2012/3/25,13:15:00,25-14.7500N,119-53.7900E,226,14.679
4923,2012/3/25,13:16:00,25-14.6200N,119-53.6300E,228,14.653
4924,2012/3/25,13:17:00,25-14.4900N,119-53.4700E,227,14.599
4925,2012/3/25,13:18:00,25-14.3700N,119-53.3100E,227,14.547
4926,2012/3/25,13:19:00,25-14.2300N,119-53.1500E,227,14.513
4927,2012/3/25,13:20:00,25-14.1000N,119-52.9900E,224,14.478
4928,2012/3/25,13:21:00,25-13.9600N,119-52.8400E,227,14.448
4929,2012/3/25,13:22:00,25-13.8300N,119-52.6800E,227,14.416
4930,2012/3/25,13:23:00,25-13.7000N,119-52.5200E,228,14.385
4931,2012/3/25,13:24:00,25-13.5700N,119-52.3500E,228,14.362
4932,2012/3/25,13:25:00,25-13.4400N,119-52.1900E,227,14.337
4933,2012/3/25,13:26:00,25-13.3000N,119-52.0400E,224,14.31
4934,2012/3/25,13:27:00,25-13.1700N,119-51.8800E,228,14.29
4935,2012/3/25,13:28:00,25-13.0500N,119-51.7200E,230,14.284
4936,2012/3/25,13:29:00,25-12.9200N,119-51.5500E,228,14.275
4937,2012/3/25,13:30:00,25-12.7900N,119-51.3900E,229,14.271
4938,2012/3/25,13:31:00,25-12.6600N,119-51.2300E,229,14.268
4939,2012/3/25,13:32:00,25-12.5300N,119-51.0600E,229,14.263
4940,2012/3/25,13:33:00,25-12.3900N,119-50.8900E,228,14.261
4941,2012/3/25,13:34:00,25-12.2700N,119-50.7200E,230,14.258
4942,2012/3/25,13:35:00,25-12.1400N,119-50.5500E,230,14.259
4943,2012/3/25,13:36:00,25-12.0100N,119-50.3900E,228,14.264
4944,2012/3/25,13:37:00,25-11.8700N,119-50.2300E,227,14.273
4945,2012/3/25,13:38:00,25-11.7400N,119-50.0700E,227,14.285
4946,2012/3/25,13:39:00,25-11.6200N,119-49.9000E,232,14.294
4947,2012/3/25,13:40:00,25-11.5000N,119-49.7300E,231,14.302
4948,2012/3/25,13:41:00,25-11.3700N,119-49.5600E,229,14.302
4949,2012/3/25,13:42:00,25-11.2400N,119-49.4000E,228,14.307
4950,2012/3/25,13:43:00,25-11.1100N,119-49.2400E,227,14.32
4951,2012/3/25,13:44:00,25-10.9800N,119-49.0700E,231,14.351
4952,2012/3/25,13:45:00,25-10.8300N,119-48.8800E,227,14.347
4953,2012/3/25,13:46:00,25-10.7200N,119-48.7300E,227,14.34
4954,2012/3/25,13:47:00,25-10.5800N,119-48.5700E,226,14.339
4955,2012/3/25,13:48:00,25-10.4500N,119-48.4100E,228,14.365
4956,2012/3/25,13:49:00,25-10.3200N,119-48.2400E,229,14.37
4957,2012/3/25,13:50:00,25-10.1800N,119-48.0800E,226,14.346
4958,2012/3/25,13:51:00,25-10.0400N,119-47.9200E,225,14.38
4959,2012/3/25,13:52:00,25-09.9000N,119-47.7600E,228,14.423
4960,2012/3/25,13:53:00,25-09.7700N,119-47.5900E,230,14.449
4961,2012/3/25,13:54:00,25-09.6400N,119-47.4100E,230,14.461
4962,2012/3/25,13:55:00,25-09.5000N,119-47.2500E,226,14.476
4963,2012/3/25,13:56:00,25-09.3600N,119-47.0900E,223,14.493
4964,2012/3/25,13:57:00,25-09.2200N,119-46.9300E,227,14.515
4965,2012/3/25,13:58:00,25-09.0900N,119-46.7700E,228,14.542
4966,2012/3/25,13:59:00,25-08.9600N,119-46.6100E,228,14.537
4967,2012/3/25,14:00:00,25-08.8300N,119-46.4400E,230,14.607
4968,2012/3/25,14:01:00,25-08.6900N,119-46.2700E,228,14.611
4969,2012/3/25,14:02:00,25-08.5600N,119-46.1100E,228,14.637
4970,2012/3/25,14:03:00,25-08.4200N,119-45.9400E,228,14.672
4971,2012/3/25,14:04:00,25-08.2800N,119-45.7700E,228,14.706
4972,2012/3/25,14:05:00,25-08.1400N,119-45.6100E,227,14.725
4973,2012/3/25,14:06:00,25-08.0000N,119-45.4400E,228,14.735
4974,2012/3/25,14:07:00,25-07.8600N,119-45.2700E,226,14.763
4975,2012/3/25,14:08:00,25-07.7200N,119-45.1000E,229,14.81
4976,2012/3/25,14:09:00,25-07.5900N,119-44.9300E,227,14.828
4977,2012/3/25,14:10:00,25-07.4500N,119-44.7600E,230,14.837
4978,2012/3/25,14:11:00,25-07.3200N,119-44.5900E,230,14.849
4979,2012/3/25,14:12:00,25-07.1900N,119-44.4200E,228,14.838
4980,2012/3/25,14:13:00,25-07.0500N,119-44.2500E,227,14.845
4981,2012/3/25,14:14:00,25-06.9000N,119-44.0800E,225,14.854
4982,2012/3/25,14:15:00,25-06.7700N,119-43.9200E,228,14.861
4983,2012/3/25,14:16:00,25-06.6300N,119-43.7500E,225,15.018
4984,2012/3/25,14:17:00,25-06.4900N,119-43.5900E,227,15.042
4985,2012/3/25,14:18:00,25-06.3500N,119-43.4200E,230,15.042
4986,2012/3/25,14:19:00,25-06.2200N,119-43.2500E,228,15.13
4987,2012/3/25,14:20:00,25-06.0800N,119-43.0900E,225,15.148
4988,2012/3/25,14:21:00,25-05.9400N,119-42.9300E,226,15.158
4989,2012/3/25,14:22:00,25-05.8000N,119-42.7600E,228,15.155
4990,2012/3/25,14:23:00,25-05.6700N,119-42.6000E,225,15.147
4991,2012/3/25,14:24:00,25-05.5200N,119-42.4500E,225,15.137
4992,2012/3/25,14:25:00,25-05.3800N,119-42.2900E,225,15.12
4993,2012/3/25,14:26:00,25-05.2300N,119-42.1300E,225,15.102
4994,2012/3/25,14:27:00,25-05.0900N,119-41.9700E,225,15.062
4995,2012/3/25,14:28:00,25-04.9500N,119-41.8100E,225,15.052
4996,2012/3/25,14:29:00,25-04.8000N,119-41.6600E,221,15.032
4997,2012/3/25,14:30:00,25-04.6400N,119-41.5100E,224,15.011
4998,2012/3/25,14:31:00,25-04.5000N,119-41.3500E,226,14.993
4999,2012/3/25,14:32:00,25-04.3500N,119-41.1900E,224,14.963
5000,2012/3/25,14:33:00,25-04.2000N,119-41.0300E,223,14.938
5001,2012/3/25,14:34:00,25-04.0400N,119-40.8800E,220,14.905
5002,2012/3/25,14:35:00,25-03.8900N,119-40.7300E,220,14.895
5003,2012/3/25,14:36:00,25-03.7300N,119-40.5800E,220,14.809
5004,2012/3/25,14:37:00,25-03.5800N,119-40.4400E,218,14.818
5005,2012/3/25,14:38:00,25-03.4100N,119-40.3000E,219,14.862
5006,2012/3/25,14:39:00,25-03.2600N,119-40.1500E,221,14.844
5007,2012/3/25,14:40:00,25-03.1000N,119-40.0000E,220,14.835
5008,2012/3/25,14:41:00,25-02.9500N,119-39.8500E,220,14.787
5009,2012/3/25,14:42:00,25-02.7900N,119-39.7100E,221,14.705
5010,2012/3/25,14:43:00,25-02.6200N,119-39.5400E,222,14.597
5011,2012/3/25,14:44:00,25-02.4700N,119-39.3900E,220,14.509
5012,2012/3/25,14:45:00,25-02.3200N,119-39.2400E,222,14.466
5013,2012/3/25,14:46:00,25-02.1700N,119-39.1000E,220,14.437
5014,2012/3/25,14:47:00,25-02.0400N,119-38.9700E,222,14.408
5015,2012/3/25,14:48:00,25-01.9000N,119-38.8200E,224,14.395
5016,2012/3/25,14:49:00,25-01.7600N,119-38.6700E,225,14.376
5017,2012/3/25,14:50:00,25-01.6200N,119-38.5200E,226,14.349
5018,2012/3/25,14:51:00,25-01.4800N,119-38.3600E,224,14.338
5019,2012/3/25,14:52:00,25-01.3400N,119-38.2000E,227,14.326
5020,2012/3/25,14:53:00,25-01.2100N,119-38.0400E,226,14.301
5021,2012/3/25,14:54:00,25-01.0700N,119-37.8900E,225,14.302
5022,2012/3/25,14:55:00,25-00.9400N,119-37.7300E,228,14.296
5023,2012/3/25,14:56:00,25-00.7900N,119-37.5600E,225,14.302
5024,2012/3/25,14:57:00,25-00.6700N,119-37.4200E,226,14.297
5025,2012/3/25,14:58:00,25-00.5400N,119-37.2600E,228,14.294
5026,2012/3/25,14:59:00,25-00.3900N,119-37.0900E,226,14.276
5027,2012/3/25,15:00:00,25-00.2700N,119-36.9500E,224,14.243
5028,2012/3/25,15:01:00,25-00.1200N,119-36.7700E,229,14.201
5029,2012/3/25,15:02:00,25-00.0100N,119-36.6300E,230,14.183
5030,2012/3/25,15:03:00,24-59.8900N,119-36.4600E,229,14.185
5031,2012/3/25,15:04:00,24-59.7600N,119-36.3100E,225,14.178
5032,2012/3/25,15:05:00,24-59.6400N,119-36.1500E,230,14.216
5033,2012/3/25,15:06:00,24-59.4900N,119-35.9600E,230,14.222
5034,2012/3/25,15:07:00,24-59.3800N,119-35.8300E,226,14.234
5035,2012/3/25,15:08:00,24-59.2400N,119-35.6700E,227,14.241
5036,2012/3/25,15:09:00,24-59.1100N,119-35.5100E,227,14.248
5037,2012/3/25,15:10:00,24-58.9800N,119-35.3400E,231,14.264
5038,2012/3/25,15:11:00,24-58.8600N,119-35.1700E,230,14.29
5039,2012/3/25,15:12:00,24-58.7300N,119-35.0100E,226,14.314
5040,2012/3/25,15:13:00,24-58.6000N,119-34.8600E,228,14.329
5041,2012/3/25,15:14:00,24-58.4600N,119-34.6900E,228,14.341
5042,2012/3/25,15:15:00,24-58.3300N,119-34.5300E,226,14.353
5043,2012/3/25,15:16:00,24-58.2000N,119-34.3600E,229,14.356
5044,2012/3/25,15:17:00,24-58.0800N,119-34.1900E,231,14.371
5045,2012/3/25,15:18:00,24-57.9600N,119-34.0200E,230,14.381
5046,2012/3/25,15:19:00,24-57.8200N,119-33.8600E,227,14.387
5047,2012/3/25,15:20:00,24-57.6900N,119-33.7000E,226,14.393
5048,2012/3/25,15:21:00,24-57.5600N,119-33.5400E,230,14.406
5049,2012/3/25,15:22:00,24-57.4300N,119-33.3700E,230,14.423
5050,2012/3/25,15:23:00,24-57.3000N,119-33.2100E,228,14.427
5051,2012/3/25,15:24:00,24-57.1700N,119-33.0400E,230,14.443
5052,2012/3/25,15:25:00,24-57.0400N,119-32.8800E,228,14.472
5053,2012/3/25,15:26:00,24-56.9000N,119-32.7200E,227,14.485
5054,2012/3/25,15:27:00,24-56.7800N,119-32.5500E,231,14.471
5055,2012/3/25,15:28:00,24-56.6500N,119-32.3800E,228,14.472
5056,2012/3/25,15:29:00,24-56.5100N,119-32.2100E,230,14.527
5057,2012/3/25,15:30:00,24-56.3800N,119-32.0400E,228,14.567
5058,2012/3/25,15:31:00,24-56.2500N,119-31.8800E,228,14.589
5059,2012/3/25,15:32:00,24-56.1200N,119-31.7000E,231,14.613
5060,2012/3/25,15:33:00,24-55.9900N,119-31.5300E,228,14.626
5061,2012/3/25,15:34:00,24-55.8500N,119-31.3700E,229,14.632
5062,2012/3/25,15:35:00,24-55.7200N,119-31.2000E,230,14.65
5063,2012/3/25,15:36:00,24-55.6000N,119-31.0300E,231,14.658
5064,2012/3/25,15:37:00,24-55.4700N,119-30.8600E,227,14.629
5065,2012/3/25,15:38:00,24-55.3400N,119-30.7000E,227,14.655
5066,2012/3/25,15:39:00,24-55.2100N,119-30.5300E,228,14.725
5067,2012/3/25,15:40:00,24-55.0900N,119-30.3600E,234,14.752
5068,2012/3/25,15:41:00,24-54.9700N,119-30.1900E,232,14.773
5069,2012/3/25,15:42:00,24-54.8500N,119-30.0200E,233,14.802
5070,2012/3/25,15:43:00,24-54.7200N,119-29.8500E,231,14.827
5071,2012/3/25,15:44:00,24-54.6000N,119-29.6800E,230,14.828
5072,2012/3/25,15:45:00,24-54.4700N,119-29.5200E,227,14.852
5073,2012/3/25,15:46:00,24-54.3400N,119-29.3700E,227,14.888
5074,2012/3/25,15:47:00,24-54.2000N,119-29.2100E,225,14.893
5075,2012/3/25,15:48:00,24-54.0600N,119-29.0500E,224,14.94
5076,2012/3/25,15:49:00,24-53.9300N,119-28.8900E,229,15.001
5077,2012/3/25,15:50:00,24-53.8000N,119-28.7300E,228,15.019
5078,2012/3/25,15:51:00,24-53.6800N,119-28.5800E,226,15.077
5079,2012/3/25,15:52:00,24-53.5500N,119-28.4300E,226,15.119
5080,2012/3/25,15:53:00,24-53.4200N,119-28.2800E,228,15.15
5081,2012/3/25,15:54:00,24-53.3000N,119-28.1200E,229,15.18
5082,2012/3/25,15:55:00,24-53.1800N,119-27.9800E,225,15.2
5083,2012/3/25,15:56:00,24-53.0400N,119-27.8300E,222,15.239
5084,2012/3/25,15:57:00,24-52.9200N,119-27.6900E,227,15.292
5085,2012/3/25,15:58:00,24-52.8000N,119-27.5300E,229,15.333
5086,2012/3/25,15:59:00,24-52.6700N,119-27.3800E,228,15.351
5087,2012/3/25,16:00:00,24-52.5400N,119-27.2300E,224,15.399
5088,2012/3/25,16:01:00,24-52.4100N,119-27.0900E,226,15.424
5089,2012/3/25,16:02:00,24-52.2800N,119-26.9400E,228,15.509
5090,2012/3/25,16:03:00,24-52.1600N,119-26.7800E,228,15.562
5091,2012/3/25,16:04:00,24-52.0400N,119-26.6400E,226,15.642
5092,2012/3/25,16:05:00,24-51.9200N,119-26.4900E,225,15.687
5093,2012/3/25,16:06:00,24-51.7900N,119-26.3400E,227,15.758
5094,2012/3/25,16:07:00,24-51.6600N,119-26.1900E,228,15.92
5095,2012/3/25,16:08:00,24-51.5400N,119-26.0400E,226,16.138
5096,2012/3/25,16:09:00,24-51.4100N,119-25.8900E,227,16.326
5097,2012/3/25,16:10:00,24-51.2800N,119-25.7300E,229,17.212
5098,2012/3/25,16:11:00,24-51.1500N,119-25.5800E,225,17.343
5099,2012/3/25,16:12:00,24-51.0300N,119-25.4300E,229,17.436
5100,2012/3/25,16:13:00,24-50.9100N,119-25.2800E,228,17.479
5101,2012/3/25,16:14:00,24-50.7900N,119-25.1300E,229,17.676
5102,2012/3/25,16:15:00,24-50.6600N,119-24.9800E,225,17.799
5103,2012/3/25,16:16:00,24-50.5400N,119-24.8300E,228,17.85
5104,2012/3/25,16:17:00,24-50.4200N,119-24.6800E,232,17.867
5105,2012/3/25,16:18:00,24-50.3000N,119-24.5300E,224,17.858
5106,2012/3/25,16:19:00,24-50.1700N,119-24.3900E,227,17.842
5107,2012/3/25,16:20:00,24-50.0400N,119-24.2300E,228,17.805
5108,2012/3/25,16:21:00,24-49.9300N,119-24.0800E,229,17.774
5109,2012/3/25,16:22:00,24-49.8000N,119-23.9300E,227,17.753
5110,2012/3/25,16:23:00,24-49.6700N,119-23.7800E,226,17.746
5111,2012/3/25,16:24:00,24-49.5600N,119-23.6300E,228,17.757
5112,2012/3/25,16:25:00,24-49.4300N,119-23.4800E,227,17.772
5113,2012/3/25,16:26:00,24-49.3000N,119-23.3400E,225,17.775
5114,2012/3/25,16:27:00,24-49.1800N,119-23.1900E,229,17.775
5115,2012/3/25,16:28:00,24-49.0600N,119-23.0300E,227,17.781
5116,2012/3/25,16:29:00,24-48.9300N,119-22.8800E,227,17.773
5117,2012/3/25,16:30:00,24-48.8000N,119-22.7300E,227,17.745
5118,2012/3/25,16:31:00,24-48.6700N,119-22.5700E,229,17.698
5119,2012/3/25,16:32:00,24-48.5400N,119-22.4100E,228,17.684
5120,2012/3/25,16:33:00,24-48.4100N,119-22.2600E,224,17.682
5121,2012/3/25,16:34:00,24-48.2800N,119-22.1100E,228,17.685
5122,2012/3/25,16:35:00,24-48.1600N,119-21.9500E,229,17.55
5123,2012/3/25,16:36:00,24-48.0400N,119-21.8000E,227,17.358
5124,2012/3/25,16:37:00,24-47.9100N,119-21.6600E,223,17.21
5125,2012/3/25,16:38:00,24-47.7800N,119-21.5000E,227,17.125
5126,2012/3/25,16:39:00,24-47.6500N,119-21.3500E,227,17.068
5127,2012/3/25,16:40:00,24-47.5200N,119-21.1900E,229,17.018
5128,2012/3/25,16:41:00,24-47.3900N,119-21.0300E,227,16.996
5129,2012/3/25,16:42:00,24-47.2600N,119-20.8900E,223,16.97
5130,2012/3/25,16:43:00,24-47.1200N,119-20.7400E,227,16.954
5131,2012/3/25,16:44:00,24-47.0000N,119-20.5800E,231,16.913
5132,2012/3/25,16:45:00,24-46.8700N,119-20.4200E,228,16.884
5133,2012/3/25,16:46:00,24-46.7400N,119-20.2700E,226,16.858
5134,2012/3/25,16:47:00,24-46.6100N,119-20.1100E,227,16.831
5135,2012/3/25,16:48:00,24-46.4700N,119-19.9500E,226,16.792
5136,2012/3/25,16:49:00,24-46.3500N,119-19.8000E,227,16.742
5137,2012/3/25,16:50:00,24-46.2100N,119-19.6500E,224,16.702
5138,2012/3/25,16:51:00,24-46.0700N,119-19.4900E,224,16.659
5139,2012/3/25,16:52:00,24-45.9400N,119-19.3400E,227,16.621
5140,2012/3/25,16:53:00,24-45.8100N,119-19.1800E,228,16.592
5141,2012/3/25,16:54:00,24-45.6800N,119-19.0200E,228,16.571
5142,2012/3/25,16:55:00,24-45.5600N,119-18.8800E,226,16.556
5143,2012/3/25,16:56:00,24-45.4200N,119-18.7300E,222,16.538
5144,2012/3/25,16:57:00,24-45.2900N,119-18.5800E,230,16.513
5145,2012/3/25,16:58:00,24-45.1600N,119-18.4200E,227,16.506
5146,2012/3/25,16:59:00,24-45.0400N,119-18.2600E,229,16.485
5147,2012/3/25,17:00:00,24-44.9100N,119-18.1000E,226,16.478
5148,2012/3/25,17:01:00,24-44.7700N,119-17.9500E,226,16.466
5149,2012/3/25,17:02:00,24-44.6300N,119-17.8000E,224,16.437
5150,2012/3/25,17:03:00,24-44.4900N,119-17.6400E,224,16.394
5151,2012/3/25,17:04:00,24-44.3600N,119-17.4900E,225,16.355
5152,2012/3/25,17:05:00,24-44.2200N,119-17.3300E,227,16.307
5153,2012/3/25,17:06:00,24-44.1000N,119-17.1700E,230,16.279
5154,2012/3/25,17:07:00,24-43.9700N,119-17.0100E,227,16.308
5155,2012/3/25,17:08:00,24-43.8300N,119-16.8500E,224,16.332
5156,2012/3/25,17:09:00,24-43.7000N,119-16.7000E,226,16.314
5157,2012/3/25,17:10:00,24-43.5600N,119-16.5500E,223,16.285
5158,2012/3/25,17:11:00,24-43.4200N,119-16.4000E,227,16.293
5159,2012/3/25,17:12:00,24-43.3000N,119-16.2300E,228,16.276
5160,2012/3/25,17:13:00,24-43.1700N,119-16.0800E,227,16.231
5161,2012/3/25,17:14:00,24-43.0400N,119-15.9300E,227,16.143
5162,2012/3/25,17:15:00,24-42.9100N,119-15.7700E,226,16.029
5163,2012/3/25,17:16:00,24-42.7700N,119-15.6200E,226,15.907
5164,2012/3/25,17:17:00,24-42.6400N,119-15.4600E,228,15.798
5165,2012/3/25,17:18:00,24-42.5000N,119-15.3100E,226,15.546
5166,2012/3/25,17:19:00,24-42.3500N,119-15.1300E,228,15.338
5167,2012/3/25,17:20:00,24-42.2200N,119-14.9800E,223,15.243
5168,2012/3/25,17:21:00,24-42.1000N,119-14.8400E,225,15.202
5169,2012/3/25,17:22:00,24-41.9600N,119-14.6800E,225,15.216
5170,2012/3/25,17:23:00,24-41.8100N,119-14.5100E,226,15.226
5171,2012/3/25,17:24:00,24-41.6900N,119-14.3700E,226,15.238
5172,2012/3/25,17:25:00,24-41.5400N,119-14.1800E,227,15.221
5173,2012/3/25,17:26:00,24-41.4000N,119-14.0300E,224,15.195
5174,2012/3/25,17:27:00,24-41.2900N,119-13.8900E,228,15.166
5175,2012/3/25,17:28:00,24-41.1700N,119-13.7400E,227,15.134
5176,2012/3/25,17:29:00,24-41.0300N,119-13.5900E,224,15.117
5177,2012/3/25,17:30:00,24-40.9000N,119-13.4500E,224,15.134
5178,2012/3/25,17:31:00,24-40.7600N,119-13.2900E,226,15.262
5179,2012/3/25,17:32:00,24-40.6400N,119-13.1400E,228,15.364
5180,2012/3/25,17:33:00,24-40.5100N,119-12.9900E,223,15.45
5181,2012/3/25,17:34:00,24-40.3700N,119-12.8500E,225,15.481
5182,2012/3/25,17:35:00,24-40.2500N,119-12.6900E,226,15.482
5183,2012/3/25,17:36:00,24-40.1100N,119-12.5500E,224,15.477
5184,2012/3/25,17:37:00,24-39.9800N,119-12.3900E,228,15.438
5185,2012/3/25,17:38:00,24-39.8500N,119-12.2300E,227,15.399
5186,2012/3/25,17:39:00,24-39.7200N,119-12.0800E,224,15.785
5187,2012/3/25,17:40:00,24-39.5800N,119-11.9300E,225,16.068
5188,2012/3/25,17:41:00,24-39.4400N,119-11.7800E,224,16.233
5189,2012/3/25,17:42:00,24-39.3100N,119-11.6300E,225,16.359
5190,2012/3/25,17:43:00,24-39.1700N,119-11.4700E,226,16.391
5191,2012/3/25,17:44:00,24-39.0400N,119-11.3100E,226,16.422
5192,2012/3/25,17:45:00,24-38.9000N,119-11.1500E,226,16.559
5193,2012/3/25,17:46:00,24-38.7700N,119-10.9900E,231,16.83
5194,2012/3/25,17:47:00,24-38.6500N,119-10.8200E,228,17.037
5195,2012/3/25,17:48:00,24-38.5100N,119-10.6600E,225,17.18
5196,2012/3/25,17:49:00,24-38.3700N,119-10.5100E,224,17.289
5197,2012/3/25,17:50:00,24-38.2300N,119-10.3600E,225,17.314
5198,2012/3/25,17:51:00,24-38.0900N,119-10.2100E,223,17.374
5199,2012/3/25,17:52:00,24-37.9500N,119-10.0500E,226,17.46
5200,2012/3/25,17:53:00,24-37.8000N,119-09.9100E,219,17.547
5201,2012/3/25,17:54:00,24-37.6400N,119-09.7700E,219,17.649
5202,2012/3/25,17:55:00,24-37.4900N,119-09.6300E,220,17.694
5203,2012/3/25,17:56:00,24-37.3300N,119-09.5000E,215,17.721
5204,2012/3/25,17:57:00,24-37.1600N,119-09.3700E,214,17.723
5205,2012/3/25,17:58:00,24-37.0000N,119-09.2400E,220,17.713
5206,2012/3/25,17:59:00,24-36.8400N,119-09.0600E,226,17.695
5207,2012/3/25,18:00:00,24-36.7200N,119-08.9200E,226,17.642
5208,2012/3/25,18:01:00,24-36.5800N,119-08.7600E,228,17.581
5209,2012/3/25,18:02:00,24-36.4500N,119-08.5900E,228,17.52
5210,2012/3/25,18:03:00,24-36.2900N,119-08.4100E,224,17.455
5211,2012/3/25,18:04:00,24-36.1400N,119-08.2600E,223,17.377
5212,2012/3/25,18:05:00,24-36.0200N,119-08.1200E,225,17.296
5213,2012/3/25,18:06:00,24-35.8600N,119-07.9400E,225,17.208
5214,2012/3/25,18:07:00,24-35.7400N,119-07.8000E,226,17.097
5215,2012/3/25,18:08:00,24-35.6100N,119-07.6400E,227,16.973
5216,2012/3/25,18:09:00,24-35.4700N,119-07.4800E,227,16.867
5217,2012/3/25,18:10:00,24-35.3500N,119-07.3200E,228,16.794
5218,2012/3/25,18:11:00,24-35.2100N,119-07.1600E,224,16.762
5219,2012/3/25,18:12:00,24-35.0600N,119-07.0200E,223,16.749
5220,2012/3/25,18:13:00,24-34.9300N,119-06.8600E,226,16.747
5221,2012/3/25,18:14:00,24-34.8000N,119-06.7000E,228,16.752
5222,2012/3/25,18:15:00,24-34.6400N,119-06.5100E,226,16.749
5223,2012/3/25,18:16:00,24-34.4900N,119-06.3500E,223,16.765
5224,2012/3/25,18:17:00,24-34.3500N,119-06.1900E,225,16.78
5225,2012/3/25,18:18:00,24-34.2200N,119-06.0300E,227,16.776
5226,2012/3/25,18:19:00,24-34.0900N,119-05.8900E,224,16.707
5227,2012/3/25,18:20:00,24-33.9500N,119-05.7300E,225,16.615
5228,2012/3/25,18:21:00,24-33.8100N,119-05.5600E,226,16.507
5229,2012/3/25,18:22:00,24-33.6700N,119-05.4000E,225,16.45
5230,2012/3/25,18:23:00,24-33.5300N,119-05.2400E,227,16.606
5231,2012/3/25,18:24:00,24-33.3900N,119-05.0700E,228,16.643
5232,2012/3/25,18:25:00,24-33.2500N,119-04.9100E,226,16.571
5233,2012/3/25,18:26:00,24-33.1100N,119-04.7600E,224,16.408
5234,2012/3/25,18:27:00,24-32.9700N,119-04.6000E,225,16.159
5235,2012/3/25,18:28:00,24-32.8300N,119-04.4400E,226,15.849
5236,2012/3/25,18:29:00,24-32.6900N,119-04.2800E,226,15.397
5237,2012/3/25,18:30:00,24-32.5600N,119-04.1200E,226,14.986
5238,2012/3/25,18:31:00,24-32.4200N,119-03.9500E,228,14.649
5239,2012/3/25,18:32:00,24-32.2900N,119-03.7900E,227,14.244
5240,2012/3/25,18:33:00,24-32.1500N,119-03.6400E,223,14.152
5241,2012/3/25,18:34:00,24-32.0100N,119-03.4900E,225,14.321
5242,2012/3/25,18:35:00,24-31.8600N,119-03.3300E,225,14.393
5243,2012/3/25,18:36:00,24-31.7300N,119-03.1700E,228,14.107
5244,2012/3/25,18:37:00,24-31.5900N,119-03.0100E,226,13.999
5245,2012/3/25,18:38:00,24-31.4500N,119-02.8500E,225,13.982
5246,2012/3/25,18:39:00,24-31.3100N,119-02.6900E,226,13.982
5247,2012/3/25,18:40:00,24-31.1700N,119-02.5300E,227,13.988
5248,2012/3/25,18:41:00,24-31.0400N,119-02.3700E,228,13.969
5249,2012/3/25,18:42:00,24-30.9000N,119-02.2100E,227,13.958
5250,2012/3/25,18:43:00,24-30.7700N,119-02.0500E,228,13.936
5251,2012/3/25,18:44:00,24-30.6400N,119-01.8900E,226,13.903
5252,2012/3/25,18:45:00,24-30.5000N,119-01.7400E,224,13.886
5253,2012/3/25,18:46:00,24-30.3600N,119-01.5900E,227,13.879
5254,2012/3/25,18:47:00,24-30.2300N,119-01.4300E,226,13.875
5255,2012/3/25,18:48:00,24-30.0900N,119-01.2800E,225,13.866
5256,2012/3/25,18:49:00,24-29.9500N,119-01.1300E,225,13.862
5257,2012/3/25,18:50:00,24-29.8200N,119-00.9800E,227,13.866
5258,2012/3/25,18:51:00,24-29.7000N,119-00.8200E,229,13.877
5259,2012/3/25,18:52:00,24-29.5700N,119-00.6600E,228,13.881
5260,2012/3/25,18:53:00,24-29.4300N,119-00.5100E,223,13.884
5261,2012/3/25,18:54:00,24-29.3000N,119-00.3600E,228,13.886
5262,2012/3/25,18:55:00,24-29.1700N,119-00.2000E,226,13.888
5263,2012/3/25,18:56:00,24-29.0300N,119-00.0500E,223,13.896
5264,2012/3/25,18:57:00,24-28.8900N,118-59.9000E,224,13.899
5265,2012/3/25,18:58:00,24-28.7600N,118-59.7400E,229,13.9
5266,2012/3/25,18:59:00,24-28.6200N,118-59.5900E,226,13.905
5267,2012/3/25,19:00:00,24-28.4800N,118-59.4300E,226,13.912
5268,2012/3/25,19:01:00,24-28.3500N,118-59.2700E,227,13.911
5269,2012/3/25,19:02:00,24-28.2200N,118-59.1100E,226,13.921
5270,2012/3/25,19:03:00,24-28.0700N,118-58.9500E,225,13.927
5271,2012/3/25,19:04:00,24-27.9400N,118-58.8000E,226,13.933
5272,2012/3/25,19:05:00,24-27.8000N,118-58.6300E,227,13.946